Hourly Data Report for October 10, 2016

All times are specified in Local Standard Time (LST). Add 1 hour to adjust for Daylight Saving Time where and when it is observed.

WINNIPEG A CS
MANITOBA

49°55'00.000" N
97°14'58.000" W
238.70 m
502S001
71849
XWG

Download Data

Hourly Data (October 2016)
Hourly Data Report for October 10, 2016
Temp Definition
°C
Dew Point Temp Definition
°C
Rel Hum Definition
%
Wind Dir Definition
10's deg

Wind Spd Definition
km/h
Visibility Definition
km
Stn Press Definition
kPa
Hmdx Definition


Wind Chill Definition


Weather Definition


TIME
00:00 11.7 6.6 71 19 28   98.01     LegendNANA
01:00 10.8 6.6 75 20 22   98.06     LegendNANA
02:00 10.4 6.7 78 22 14   98.10     LegendNANA
03:00 9.5 6.6 82 27 15   98.16     LegendNANA
04:00 8.1 6.2 88 29 17   98.28     LegendNANA
05:00 6.8 3.5 80 34 22   98.42     LegendNANA
06:00 5.3 3.3 87 33 13   98.50     LegendNANA
07:00 4.2 2.8 90 32 11   98.55     LegendNANA
08:00 5.5 2.2 79 33 17   98.63     LegendNANA
09:00 5.6 1.2 74 32 27   98.71     LegendNANA
10:00 5.9 1.3 72 34 20   98.68     LegendNANA
11:00 7.1 1.3 67 34 20   98.71     LegendNANA
12:00 7.2 1.0 65 2 15   98.64     LegendNANA
13:00 7.2 0.8 64 36 16   98.62     LegendNANA
14:00 6.9 1.0 66 36 16   98.68     LegendNANA
15:00 7.0 1.1 66 2 17   98.67     LegendNANA
16:00 7.1 1.3 67 4 15   98.71     LegendNANA
17:00 6.7 1.3 69 4 16   98.76     LegendNANA
18:00 6.2 1.4 71 2 18   98.81     LegendNANA
19:00 6.0 1.8 74 1 18   98.81     LegendNANA
20:00 4.9 1.4 78 36 25   98.86     LegendNANA
21:00 4.7 1.9 82 1 23   98.83     LegendNANA
22:00 4.1 2.0 87 1 17   98.84     LegendNANA
23:00 3.9 2.3 89 35 18   98.84     LegendNANA

Notes on Data Quality.

Legend

  • E = Estimated
  • M = Missing
  • NA = Not Available
  • ‡ = Partner data that is not subject to review by the National Climate Archives
Date modified: